Waarnemingen

Advertentie
Mijn weer
Loch Glascarnoch, Groot Brittannië (3031): temperatuur & dauwpunt: 26.03.2020 18:00:00 - 01.04.2020 18:00:00 (BST)Loch Glascarnoch, Groot Brittannië (3031): temperatuur -20cm & temperatuur -100cm: 26.03.2020 18:00:00 - 01.04.2020 18:00:00 (BST)Loch Glascarnoch, Groot Brittannië (3031): windsnelheid & windstoten: 26.03.2020 18:00:00 - 01.04.2020 18:00:00 (BST)Loch Glascarnoch, Groot Brittannië (3031): windrichting: 26.03.2020 18:00:00 - 01.04.2020 18:00:00 (BST)Loch Glascarnoch, Groot Brittannië (3031): luchtdruk: 26.03.2020 18:00:00 - 01.04.2020 18:00:00 (BST)Loch Glascarnoch, Groot Brittannië (3031): zicht: 26.03.2020 18:00:00 - 01.04.2020 18:00:00 (BST)Loch Glascarnoch, Groot Brittannië (3031): Zonneschijnduur: 26.03.2020 18:00:00 - 01.04.2020 18:00:00 (BST)Loch Glascarnoch, Groot Brittannië (3031): neerslag: 26.03.2020 18:00:00 - 01.04.2020 18:00:00 (BST)
Datum & Tijd tt [°C] td [°C] tt -20cm [°C] tt -100cm [°C] ff [km/u] ff [kn] fx [km/u] fx [kn] dd ppp [hPa] vv [km] sd [min] rr [mm]
01.04.2020 18:00:00 6,9 3,4 - - 35 19 55 30 WNW 1015,4 21 36 0,0
01.04.2020 17:00:00 7,5 4,8 - - 34 18 48 26 W 1015,4 29 12 0,0
01.04.2020 16:00:00 6,8 5,2 - - 35 19 55 30 WNW 1016,2 10 0 1,2
01.04.2020 15:00:00 7,2 6,1 - - 39 21 61 33 W 1016,6 5 0 1,0
01.04.2020 14:00:00 6,7 6,0 - - 24 13 - - WNW 1016,6 3,2 0 0,6
01.04.2020 13:00:00 6,5 5,1 - - 29 16 50 27 W 1017,3 8 0 0,8
01.04.2020 12:00:00 5,8 3,7 - - 35 19 52 28 W 1017,8 6 0 0,8
01.04.2020 11:00:00 4,9 3,1 - - 26 14 - - W 1018,9 7 0 0,8
01.04.2020 10:00:00 4,9 2,9 4,9 4,5 28 15 - - W 1019,7 8 0 0,2
01.04.2020 09:00:00 4,3 2,2 - - 9 5 - - WNW 1020,8 35 0 0,0
01.04.2020 08:00:00 4,6 0,4 - - 24 13 48 26 W 1021,2 40 0 0,0
01.04.2020 07:00:00 4,4 0,7 - - 29 16 - - W 1021,5 35 0 0,0
01.04.2020 06:00:00 4,4 0,7 - - 31 17 46 25 W 1022,2 40 0 0,0
01.04.2020 05:00:00 4,1 0,4 - - 18 10 - - W 1023,0 40 0 0,0
01.04.2020 04:00:00 4,2 1,1 - - 24 13 - - W 1023,8 45 0 0,0
01.04.2020 03:00:00 3,8 1,7 - - 18 10 - - W 1025,1 40 0 0,0
01.04.2020 02:00:00 3,6 1,9 - - 18 10 - - WNW 1026,0 35 0 0,0
01.04.2020 01:00:00 3,3 1,9 - - 22 12 - - WNW 1027,2 29 - 0,0
01.04.2020 00:00:00 3,9 1,8 - - 21 11 46 25 W 1027,9 29 0 0,0
31.03.2020 23:00:00 4,2 2,0 - - 24 13 - - W 1028,7 26 0 0,0
31.03.2020 22:00:00 3,9 2,0 - - 16 9 - - WNW 1029,6 30 0 0,2
31.03.2020 21:00:00 4,5 1,2 - - 18 10 - - W 1030,4 28 0 0,0
31.03.2020 20:00:00 4,8 2,4 - - 16 9 - - W 1030,9 22 0 0,0
31.03.2020 19:00:00 5,4 2,7 - - 21 11 - - WNW 1031,2 21 0 0,0
31.03.2020 18:00:00 5,8 2,7 - - 22 12 - - WNW 1031,5 18 0 0,0
31.03.2020 17:00:00 6,1 2,6 - - 26 14 - - WNW 1032,1 21 0 -
31.03.2020 16:00:00 6,2 2,2 - - 26 14 - - WNW 1032,7 30 0 0,0
31.03.2020 15:00:00 6,2 3,2 - - 22 12 - - W 1033,1 26 0 0,0
31.03.2020 14:00:00 6,1 2,0 - - 29 16 - - WNW 1033,6 21 0 0,0
31.03.2020 13:00:00 6,3 2,1 - - 26 14 - - WNW 1033,9 45 0 0,0
31.03.2020 12:00:00 5,6 3,2 - - 26 14 48 26 WNW 1034,4 30 0 0,2
31.03.2020 11:00:00 5,3 2,8 - - 24 13 - - WNW 1035,0 28 0 0,0
31.03.2020 10:00:00 4,8 3,1 4,7 4,4 21 11 - - W 1035,6 50 6 0,0
31.03.2020 09:00:00 4,0 3,2 - - 15 8 - - WNW 1036,1 45 0 0,2
31.03.2020 08:00:00 3,6 2,7 - - 18 10 - - WNW 1036,4 11 0 0,2
31.03.2020 07:00:00 3,4 2,5 - - 18 10 - - W 1036,4 8 0 0,2
31.03.2020 06:00:00 3,3 2,2 - - 22 12 - - WNW 1036,5 15 0 0,2
31.03.2020 05:00:00 3,1 2,3 - - 16 9 - - W 1037,0 35 0 0,0
31.03.2020 04:00:00 3,6 2,9 - - 15 8 - - WNW 1036,9 9 0 0,0
31.03.2020 03:00:00 3,7 2,9 - - 18 10 - - WNW 1037,4 13 0 0,2
31.03.2020 02:00:00 3,5 2,7 - - 15 8 - - W 1037,8 25 0 0,4
31.03.2020 01:00:00 3,7 2,9 - - 15 8 - - W 1038,2 10 - 0,6
31.03.2020 00:00:00 3,6 2,8 - - 11 6 - - W 1038,8 8 0 0,2
30.03.2020 23:00:00 3,5 2,7 - - 13 7 - - W 1039,1 23 0 0,0
30.03.2020 22:00:00 3,7 2,9 - - 13 7 - - W 1039,4 11 0 0,2
30.03.2020 21:00:00 3,6 2,7 - - 11 6 - - W 1039,5 7 0 0,0
30.03.2020 20:00:00 3,9 2,6 - - 16 9 - - WNW 1039,3 10 0 0,0
30.03.2020 19:00:00 4,9 2,9 - - 15 8 - - WNW 1039,3 11 0 0,0
30.03.2020 18:00:00 5,2 2,7 - - 22 12 - - WNW 1039,6 11 6 0,0
30.03.2020 17:00:00 5,6 3,1 - - 24 13 - - WNW 1039,5 9 12 0,0
30.03.2020 16:00:00 5,9 3,5 - - 24 13 - - WNW 1039,7 12 6 0,0
30.03.2020 15:00:00 5,5 3,5 - - 24 13 - - WNW 1040,2 20 0 0,4
30.03.2020 14:00:00 5,8 3,7 - - 29 16 - - NW 1040,2 12 0 0,2
30.03.2020 13:00:00 5,6 3,7 - - 22 12 - - WNW 1040,6 7 0 0,0
30.03.2020 12:00:00 5,7 3,6 - - 22 12 - - WNW 1040,7 26 24 0,0
30.03.2020 11:00:00 5,1 3,7 - - 31 17 - - NW 1041,1 11 6 0,8
30.03.2020 10:00:00 4,9 3,6 4,5 4,4 22 12 - - WNW 1041,7 35 24 0,2
30.03.2020 09:00:00 4,2 3,0 - - 31 17 - - WNW 1041,3 25 0 0,0
30.03.2020 08:00:00 4,2 3,1 - - 22 12 - - NW 1041,8 12 0 0,2
30.03.2020 07:00:00 4,0 3,0 - - 26 14 - - WNW 1041,9 6 0 0,6
30.03.2020 06:00:00 4,2 3,4 - - 24 13 - - WNW 1042,1 9 0 0,6
30.03.2020 05:00:00 4,1 3,2 - - 24 13 - - WNW 1042,3 10 0 0,4
30.03.2020 04:00:00 4,1 3,2 - - 28 15 - - WNW 1042,3 10 0 0,6
30.03.2020 03:00:00 4,0 3,1 - - 22 12 - - WNW 1042,9 6 0 0,4
30.03.2020 02:00:00 4,2 3,0 - - 24 13 - - NW 1043,2 7 0 0,6
30.03.2020 01:00:00 4,5 3,5 - - 31 17 46 25 WNW 1043,8 6 - 0,4
30.03.2020 00:00:00 4,3 2,9 - - 24 13 - - WNW 1044,3 19 0 0,6
29.03.2020 23:00:00 4,3 2,8 - - 24 13 - - NW 1044,5 30 0 0,4
29.03.2020 22:00:00 4,3 3,1 - - 28 15 46 25 NW 1044,8 6 0 1,0
29.03.2020 21:00:00 4,2 3,0 - - 26 14 - - WNW 1045,0 4,5 0 0,4
29.03.2020 20:00:00 3,9 2,3 - - 28 15 - - NW 1045,6 12 0 1,0
29.03.2020 19:00:00 3,9 2,7 - - 26 14 46 25 WNW 1045,6 9 0 0,4
29.03.2020 18:00:00 3,8 2,7 - - 34 18 48 26 WNW 1046,1 5 0 0,8
29.03.2020 17:00:00 4,5 2,1 - - 28 15 54 29 WNW 1046,5 8 0 0,0
29.03.2020 16:00:00 4,6 1,0 - - 31 17 50 27 WNW 1047,0 12 0 0,0
29.03.2020 15:00:00 5,3 1,2 - - 28 15 48 26 WNW 1047,3 35 0 0,0
29.03.2020 14:00:00 4,3 0,2 - - 29 16 - - WNW 1048,2 21 0 0,0
29.03.2020 13:00:00 5,0 -1,7 - - 31 17 - - WNW 1048,5 45 0 0,0
29.03.2020 12:00:00 4,0 -2,5 - - 21 11 - - WNW 1049,2 50 0 0,0
29.03.2020 11:00:00 3,7 -3,5 - - 15 8 - - WNW 1049,7 40 6 0,0
29.03.2020 10:00:00 2,1 -4,4 4,7 4,4 16 9 - - W 1050,0 45 0 0,0
29.03.2020 09:00:00 1,1 -4,9 - - 4 2 - - WZW 1049,8 35 0 0,0
29.03.2020 08:00:00 0,1 -4,7 - - 11 6 - - W 1050,0 45 0 0,0
29.03.2020 07:00:00 -0,3 -4,9 - - 8 4 - - W 1049,7 50 0 0,0
29.03.2020 06:00:00 -0,5 -5,6 - - 0 0 - - N 1049,8 45 0 0,0
29.03.2020 05:00:00 -0,2 -5,4 - - 4 2 - - WNW 1050,2 50 0 0,0
29.03.2020 04:00:00 0,0 -5,7 - - 9 5 - - NW 1050,3 40 0 0,0
29.03.2020 03:00:00 0,3 -6,7 - - 5 3 - - NNW 1050,4 45 0 0,0
29.03.2020 02:00:00 0,4 -6,5 - - 9 5 - - N 1050,4 45 0 0,0
29.03.2020 01:00:00 0,4 -7,2 - - 9 5 46 25 NO 1049,9 45 - 0,0
29.03.2020 00:00:00 -0,1 -7,7 - - 11 6 - - NNO 1049,9 45 0 0,0
28.03.2020 23:00:00 0,6 -7,3 - - 15 8 - - NO 1049,4 40 0 0,0
28.03.2020 22:00:00 0,7 -7,0 - - 9 5 - - NO 1048,9 35 0 0,0
28.03.2020 21:00:00 1,0 -4,3 - - 13 7 - - NO 1048,5 30 0 0,0
28.03.2020 20:00:00 0,5 -6,6 - - 11 6 - - N 1047,7 40 0 0,0
28.03.2020 19:00:00 2,2 -4,3 - - 18 10 - - NNO 1046,7 23 24 0,0
28.03.2020 18:00:00 2,6 -3,3 - - 22 12 - - NNO 1045,8 20 0 0,0
28.03.2020 17:00:00 3,0 -1,9 - - 21 11 - - NO 1045,3 22 6 0,2
28.03.2020 16:00:00 3,7 -2,7 - - 16 9 - - NNO 1044,8 35 18 0,0
28.03.2020 15:00:00 4,1 -3,8 - - 21 11 - - N 1044,4 30 18 0,0
28.03.2020 14:00:00 5,2 -4,7 - - 15 8 - - NO 1043,8 35 18 0,0
28.03.2020 13:00:00 3,2 -2,6 - - 24 13 - - NNO 1044,0 21 0 0,0
28.03.2020 12:00:00 3,1 -2,3 - - 18 10 - - N 1043,3 45 0 0,0
28.03.2020 11:00:00 3,1 -0,9 - - 11 6 - - NNO 1042,4 28 0 0,0
28.03.2020 10:00:00 3,4 -2,4 4,7 4,2 13 7 - - NNW 1041,6 18 24 0,0
28.03.2020 09:00:00 3,8 -2,9 - - 16 9 - - NNW 1040,7 28 6 0,0
28.03.2020 08:00:00 2,9 -2,0 - - 22 12 - - NW 1040,1 26 0 0,2
28.03.2020 07:00:00 2,4 0,0 - - 13 7 - - NW 1039,4 24 0 0,0
28.03.2020 06:00:00 2,0 -0,2 - - 11 6 - - WNW 1039,0 20 0 0,0
28.03.2020 05:00:00 2,1 -0,3 - - 13 7 - - WNW 1039,1 18 0 0,0
28.03.2020 04:00:00 3,4 0,7 - - 13 7 - - NW 1038,7 19 0 0,0
28.03.2020 03:00:00 2,2 0,2 - - 13 7 - - WNW 1038,4 20 0 0,0
28.03.2020 02:00:00 3,7 0,9 - - 9 5 - - NNW 1037,7 35 0 0,0
28.03.2020 01:00:00 3,0 2,3 - - 11 6 - - WNW 1037,3 12 - 0,2
28.03.2020 00:00:00 1,8 0,1 - - 11 6 - - WNW 1036,9 26 0 0,0
27.03.2020 23:00:00 1,9 0,2 - - 16 9 - - NW 1036,7 24 0 0,0
27.03.2020 22:00:00 1,7 0,1 - - 4 2 - - WNW 1036,7 30 0 0,0
27.03.2020 21:00:00 3,3 0,3 - - 8 4 - - WNW 1035,9 45 0 0,0
27.03.2020 20:00:00 4,6 1,3 - - 16 9 - - NW 1035,0 40 0 0,0
27.03.2020 19:00:00 6,3 2,2 - - 11 6 - - WNW 1034,2 40 6 0,0
27.03.2020 18:00:00 6,8 2,1 - - 11 6 - - N 1033,8 21 42 0,0
27.03.2020 17:00:00 7,7 2,2 - - 16 9 - - WNW 1033,2 35 30 0,0
27.03.2020 16:00:00 7,7 1,8 - - 13 7 - - NNW 1033,3 45 6 0,0
27.03.2020 15:00:00 7,9 2,2 - - 18 10 - - W 1032,8 30 18 0,0
27.03.2020 14:00:00 8,1 -0,1 - - 11 6 - - N 1032,9 45 6 0,0
27.03.2020 13:00:00 8,3 -1,0 - - 9 5 - - NNO 1032,7 24 36 0,0
27.03.2020 12:00:00 8,2 -0,4 - - 9 5 - - NO 1032,6 26 - 0,0
27.03.2020 11:00:00 - - - - - - - - - - - - -
27.03.2020 10:00:00 5,7 0,5 4,7 4,2 4 2 - - WNW 1032,1 50 - 0,0
27.03.2020 09:00:00 2,7 1,2 - - 4 2 - - W 1032,0 40 - 0,0
27.03.2020 08:00:00 -1,3 -2,0 - - 4 2 - - W 1031,9 40 - 0,0
27.03.2020 07:00:00 -2,2 -3,2 - - 4 2 - - W 1031,6 27 - 0,0
27.03.2020 06:00:00 -0,5 -2,0 - - 4 2 - - WZW 1031,0 40 - 0,0
27.03.2020 05:00:00 1,4 -0,2 - - 13 7 - - WNW 1030,6 40 - 0,0
27.03.2020 04:00:00 2,6 0,4 - - 8 4 - - WNW 1030,2 30 - 0,0
27.03.2020 03:00:00 2,7 0,7 - - 13 7 - - WNW 1030,1 40 - 0,0
27.03.2020 02:00:00 2,6 1,2 - - 8 4 - - WNW 1029,8 50 - 0,0
27.03.2020 01:00:00 1,9 0,4 - - 2 1 - - O 1029,7 40 - 0,0
27.03.2020 00:00:00 2,5 0,8 - - 4 2 - - WNW 1029,5 35 - 0,0
26.03.2020 23:00:00 2,0 0,4 - - 4 2 - - W 1029,7 40 - 0,0
26.03.2020 22:00:00 1,1 -0,3 - - 5 3 - - W 1029,8 30 - 0,0
26.03.2020 21:00:00 2,3 0,1 - - 15 8 - - WNW 1029,6 40 - 0,0
26.03.2020 20:00:00 3,5 0,7 - - 16 9 - - WNW 1028,9 35 - 0,0
26.03.2020 19:00:00 5,6 1,3 - - 21 11 - - WNW 1028,1 35 - 0,0
26.03.2020 18:00:00 - - - - - - - - - - - - -

tt = temperatuur
td = dauwpunt
tt -20cm = temperatuur -20cm
tt -100cm = temperatuur -100cm
ff = windsnelheid
fx = windstoten
dd = windrichting
ppp = luchtdruk
vv = zicht
sd = Zonneschijnduur
rr = neerslag

Weerstations in de omgeving